San Antonio, TX

6:41 PM CST on February 23, 2017 (GMT -0600)
San Antonio International

Weather History for KSAT - March, 2013

Change the Weather History Date:

Saturday, March 30, 2013

  Actual Average Record
Temperature  
Mean Temperature 75 °F 65 °F  
Max Temperature 85 °F 77 °F 97 °F (1946)
Min Temperature 64 °F 54 °F 29 °F (1944)
Degree Days  
Heating Degree Days 0 3  
Month to date heating degree days 140 150  
Since 1 July heating degree days 1134 1451  
Cooling Degree Days 10 3  
Month to date cooling degree days 70 63  
Year to date cooling degree days 110 89  
Growing Degree Days 24 (Base 50)    
Moisture  
Dew Point 62 °F    
Average Humidity 69    
Maximum Humidity 93    
Minimum Humidity 44    
Precipitation  
Precipitation T in 0.06 in 2.05 in (1965)
Month to date precipitation 0.76 2.25  
Year to date precipitation 3.69 5.80  
Snow  
Snow 0.00 in - - ()
Month to date snowfall 0.0  
Since 1 July snowfall T  
Snow Depth 0.00 in    
Sea Level Pressure  
Sea Level Pressure 29.99 in    
Wind  
Wind Speed 10 mph (South)    
Max Wind Speed 17 mph    
Max Gust Speed 22 mph    
Visibility 10 miles    
Events      
T = Trace of Precipitation, MM = Missing Value Source: NWS Daily Summary

Daily Weather History Graph

Daily Weather History Graph

Search for Another Location

Airport or City:

Trip Planner

Search our weather history database for the weather conditions in past years. The results will help you decide how hot, cold, wet, or windy it might be!

Date:

Astronomy

Mar. 30, 2013 Rise Set
Actual Time 7:25 AM CDT 7:51 PM CDT
Civil Twilight 7:01 AM CDT 8:15 PM CDT
Nautical Twilight 6:33 AM CDT 8:43 PM CDT
Astronomical Twilight 6:05 AM CDT 9:11 PM CDT
Moon 11:41 PM CDT (3/30) 9:38 AM CDT (3/30)
Length of Visible Light 13h 13m
Length of Day
12h 25m
Waning Gibbous, 86% of the Moon is Illuminated
Mar 30
Waning Gibbous
Apr 2
Last Quarter
Apr 10
New
Apr 18
First Quarter
Apr 25
Full

Hourly Weather History & Observations

Time (CDT) Temp. Heat Index Dew Point Humidity Pressure Visibility Wind Dir Wind Speed Gust Speed Precip Events Conditions
12:30 AM 66.2 °F - 60.8 °F 83% 30.11 in 10.0 mi SSE 9.2 mph - N/A   Overcast
12:51 AM 66.0 °F - 61.0 °F 84% 30.07 in 10.0 mi SSE 9.2 mph - N/A   Overcast
1:26 AM 66.2 °F - 60.8 °F 83% 30.11 in 10.0 mi SSE 9.2 mph - N/A   Overcast
1:51 AM 66.0 °F - 61.0 °F 84% 30.07 in 10.0 mi SSE 9.2 mph - N/A   Overcast
2:51 AM 64.9 °F - 61.0 °F 87% 30.02 in 10.0 mi SSE 12.7 mph - N/A   Overcast
3:51 AM 66.0 °F - 61.0 °F 84% 30.03 in 10.0 mi South 11.5 mph 21.9 mph N/A   Overcast
4:51 AM 64.9 °F - 61.0 °F 87% 30.01 in 10.0 mi South 15.0 mph - N/A   Overcast
5:51 AM 64.9 °F - 62.1 °F 90% 30.04 in 10.0 mi South 5.8 mph - N/A   Overcast
6:35 AM 64.4 °F - 62.6 °F 94% 30.08 in 10.0 mi South 8.1 mph - N/A   Overcast
6:51 AM 64.9 °F - 62.1 °F 90% 30.03 in 10.0 mi SSE 8.1 mph - N/A   Overcast
7:51 AM 64.9 °F - 62.1 °F 90% 30.04 in 7.0 mi SSE 9.2 mph - N/A   Overcast
8:51 AM 64.9 °F - 62.1 °F 90% 30.05 in 9.0 mi South 10.4 mph - N/A   Overcast
9:51 AM 66.0 °F - 63.0 °F 90% 30.04 in 8.0 mi South 10.4 mph - N/A   Overcast
10:28 AM 68.0 °F - 62.6 °F 83% 30.08 in 9.0 mi South 10.4 mph - 0.00 in   Overcast
10:51 AM 69.1 °F - 63.0 °F 81% 30.04 in 9.0 mi SSW 10.4 mph - 0.00 in   Overcast
11:33 AM 71.6 °F - 62.6 °F 73% 30.07 in 10.0 mi South 10.4 mph - N/A   Overcast
11:51 AM 72.0 °F - 63.0 °F 73% 30.02 in 10.0 mi SSW 9.2 mph - N/A   Overcast
12:48 PM 75.2 °F - 62.6 °F 65% 30.05 in 10.0 mi SW 9.2 mph 19.6 mph N/A   Scattered Clouds
12:51 PM 75.9 °F - 63.0 °F 64% 30.00 in 10.0 mi SSW 9.2 mph - N/A   Scattered Clouds
1:51 PM 80.1 °F 81.5 °F 63.0 °F 56% 29.97 in 10.0 mi South 5.8 mph 17.3 mph N/A   Scattered Clouds
2:51 PM 81.0 °F 81.7 °F 61.0 °F 50% 29.94 in 10.0 mi SSE 9.2 mph - N/A   Mostly Cloudy
3:51 PM 82.9 °F 83.3 °F 61.0 °F 47% 29.92 in 10.0 mi SSE 12.7 mph - N/A   Mostly Cloudy
4:51 PM 82.9 °F 83.3 °F 61.0 °F 47% 29.89 in 10.0 mi South 10.4 mph - N/A   Mostly Cloudy
5:51 PM 84.0 °F 84.0 °F 60.1 °F 44% 29.88 in 10.0 mi SSW 6.9 mph - N/A   Mostly Cloudy
6:51 PM 82.0 °F 82.1 °F 59.0 °F 45% 29.86 in 10.0 mi SSE 8.1 mph - N/A   Mostly Cloudy
7:51 PM 78.1 °F - 59.0 °F 52% 29.86 in 10.0 mi South 6.9 mph - N/A   Mostly Cloudy
8:51 PM 73.0 °F - 59.0 °F 61% 29.86 in 10.0 mi SE 5.8 mph - N/A   Mostly Cloudy
9:51 PM 73.9 °F - 61.0 °F 64% 29.89 in 10.0 mi SE 12.7 mph - N/A   Scattered Clouds
10:51 PM 72.0 °F - 63.0 °F 73% 29.91 in 10.0 mi SSE 12.7 mph 21.9 mph N/A   Scattered Clouds
11:51 PM 69.1 °F - 63.0 °F 81% 29.91 in 10.0 mi SSE 10.4 mph - N/A   Partly Cloudy